TimeCDT,TemperatureF,Dew PointF,Humidity,Sea Level PressureIn,VisibilityMPH,Wind Direction,Wind SpeedMPH,Gust SpeedMPH,PrecipitationIn,Events,Conditions,WindDirDegrees,DateUTC
12:53 AM,32.0,27.0,82,29.93,6.0,WNW,6.9,-,0.00,Snow,Light Snow,290,2012-10-10 05:53:00
1:13 AM,30.2,26.6,86,29.89,1.8,NW,12.7,20.7,0.00,Snow,Light Snow,310,2012-10-10 06:13:00
1:28 AM,30.2,26.6,86,29.88,2.5,WNW,12.7,19.6,0.00,Snow,Light Snow,300,2012-10-10 06:28:00
1:41 AM,30.2,26.6,86,29.89,7.0,WNW,8.1,-,0.00,Snow,Light Snow,300,2012-10-10 06:41:00
1:53 AM,30.9,28.0,89,29.94,4.0,WNW,9.2,16.1,0.00,Snow,Light Snow,300,2012-10-10 06:53:00
2:53 AM,30.9,27.0,85,29.95,10.0,WNW,8.1,-,0.00,,Overcast,290,2012-10-10 07:53:00
3:53 AM,30.9,27.0,85,29.95,10.0,West,5.8,-,N/A,,Overcast,280,2012-10-10 08:53:00
4:53 AM,30.9,27.0,85,29.96,10.0,West,5.8,-,N/A,,Overcast,280,2012-10-10 09:53:00
5:53 AM,32.0,27.0,82,29.98,10.0,WNW,5.8,-,N/A,,Overcast,290,2012-10-10 10:53:00
6:53 AM,30.0,26.1,85,29.99,10.0,WNW,5.8,-,N/A,,Mostly Cloudy,290,2012-10-10 11:53:00
7:27 AM,30.2,26.6,86,29.94,10.0,WNW,5.8,-,N/A,,Overcast,290,2012-10-10 12:27:00
7:53 AM,32.0,27.0,82,30.01,10.0,West,4.6,-,N/A,,Overcast,280,2012-10-10 12:53:00
8:13 AM,32.0,26.6,80,29.95,10.0,West,4.6,-,N/A,,Overcast,280,2012-10-10 13:13:00
8:27 AM,33.8,26.6,75,29.95,10.0,West,4.6,-,N/A,,Overcast,280,2012-10-10 13:27:00
8:53 AM,33.1,28.0,82,30.01,10.0,West,4.6,-,N/A,,Overcast,280,2012-10-10 13:53:00
9:04 AM,33.8,28.4,81,29.96,10.0,West,4.6,-,N/A,,Mostly Cloudy,260,2012-10-10 14:04:00
9:25 AM,33.8,26.6,75,29.96,10.0,WNW,5.8,16.1,N/A,,Mostly Cloudy,290,2012-10-10 14:25:00
9:53 AM,35.1,28.0,76,30.02,10.0,West,6.9,-,N/A,,Overcast,280,2012-10-10 14:53:00
10:53 AM,37.0,28.0,70,30.03,10.0,WNW,9.2,-,N/A,,Overcast,300,2012-10-10 15:53:00
11:40 AM,39.2,26.6,61,29.97,10.0,WNW,12.7,20.7,N/A,,Mostly Cloudy,290,2012-10-10 16:40:00
11:53 AM,39.9,26.1,58,30.02,10.0,WNW,8.1,19.6,N/A,,Overcast,290,2012-10-10 16:53:00
12:53 PM,41.0,25.0,53,30.01,10.0,West,8.1,-,N/A,,Scattered Clouds,270,2012-10-10 17:53:00
1:53 PM,41.0,21.9,47,29.99,10.0,West,10.4,-,N/A,,Mostly Cloudy,270,2012-10-10 18:53:00
2:53 PM,44.1,21.9,42,29.99,10.0,West,10.4,-,N/A,,Mostly Cloudy,270,2012-10-10 19:53:00
3:53 PM,43.0,23.0,45,29.98,10.0,West,8.1,-,N/A,,Overcast,260,2012-10-10 20:53:00
4:53 PM,43.0,24.1,47,29.97,10.0,West,5.8,-,N/A,,Overcast,270,2012-10-10 21:53:00
5:53 PM,42.1,25.0,51,29.95,10.0,SW,5.8,-,N/A,,Overcast,230,2012-10-10 22:53:00
6:53 PM,42.1,25.0,51,29.96,10.0,SW,4.6,-,N/A,,Overcast,230,2012-10-10 23:53:00
7:53 PM,41.0,25.0,53,29.97,10.0,West,10.4,17.3,N/A,,Overcast,260,2012-10-11 00:53:00
8:53 PM,37.0,30.9,79,29.98,10.0,WSW,6.9,-,0.00,Rain,Light Rain,250,2012-10-11 01:53:00
9:53 PM,36.0,32.0,86,29.97,10.0,Calm,Calm,-,0.01,Rain,Light Rain,0,2012-10-11 02:53:00
10:08 PM,35.6,32.0,87,29.92,10.0,Calm,Calm,-,0.00,Rain,Light Rain,0,2012-10-11 03:08:00
10:29 PM,35.6,33.8,93,29.92,10.0,Calm,Calm,-,0.01,Rain,Light Rain,0,2012-10-11 03:29:00
10:53 PM,35.1,32.0,89,29.97,8.0,Calm,Calm,-,0.02,Snow,Light Snow,0,2012-10-11 03:53:00
11:03 PM,33.8,32.0,93,29.92,6.0,Calm,Calm,-,0.00,Snow,Light Snow,0,2012-10-11 04:03:00
11:11 PM,33.8,32.0,93,29.92,5.0,Calm,Calm,-,0.01,Snow,Light Snow,0,2012-10-11 04:11:00
11:51 PM,33.8,30.2,87,29.91,2.5,Calm,Calm,-,0.02,Snow,Light Snow,0,2012-10-11 04:51:00
11:53 PM,33.1,30.9,92,29.96,2.5,Calm,Calm,-,0.03,Snow,Light Snow,0,2012-10-11 04:53:00